Weather History for Havre, MT

Change the Weather History Date:

Wednesday, April 17, 2013

  Actual Average Record
Temperature  
Mean Temperature 27 °F 45 °F  
Max Temperature 42 °F 59 °F 83 °F (1923)
Min Temperature 12 °F 31 °F 6 °F (1896)
Degree Days  
Heating Degree Days 38 20  
Month to date heating degree days 461 385  
Since 1 July heating degree days 7324 7503  
Cooling Degree Days 0 0  
Month to date cooling degree days 0 0  
Year to date cooling degree days 0 0  
Moisture  
Dew Point 16 °F    
Average Humidity 62    
Maximum Humidity 92    
Minimum Humidity 32    
Precipitation  
Precipitation 0.00 in 0.03 in 0.46 in (1978)
Month to date precipitation 0.62 0.41  
Year to date precipitation 2.54 1.56  
Snow  
Snow T in 0.10 in 2.00 in (1909)
Month to date snowfall 3.5 2.2  
Since 1 July snowfall 50.5 36.4  
Snow Depth T in    
Sea Level Pressure  
Sea Level Pressure 30.38 in    
Wind  
Wind Speed 5 mph (SW)    
Max Wind Speed 12 mph    
Max Gust Speed 16 mph    
Visibility 10 miles    
Events      
T = Trace of Precipitation, MM = Missing Value Source: NWS Daily Summary

Daily Weather History Graph

Daily Weather History Graph

Search for Another Location

Airport:

Trip Planner

Search our weather history database for the weather conditions in past years. The results will help you decide how hot, cold, wet, or windy it might be!

Date:

Astronomy

Apr. 17, 2013 Rise Set
Actual Time 6:24 AM MDT 8:13 PM MDT
Civil Twilight 5:50 AM MDT 8:47 PM MDT
Nautical Twilight 5:10 AM MDT 9:28 PM MDT
Astronomical Twilight 4:25 AM MDT 10:13 PM MDT
Moon 11:32 AM MDT (4/17) 2:03 AM MDT (4/17)
Length of Visible Light 14h 56m
Length of Day
13h 49m
Waxing Crescent, 43% of the Moon is Illuminated
Apr 17
Waxing Crescent
Apr 18
First Quarter
Apr 25
Full
May 2
Last Quarter
May 9
New

Hourly Weather History & Observations

Time (MDT) Temp. Windchill Dew Point Humidity Pressure Visibility Wind Dir Wind Speed Gust Speed Precip Events Conditions
12:53 AM 21.9 °F 15.7 °F 19.0 °F 89% 30.45 in 10.0 mi East 4.6 mph - N/A   Mostly Cloudy
1:53 AM 19.0 °F - 15.1 °F 85% 30.46 in 10.0 mi Calm Calm - N/A   Clear
2:53 AM 15.1 °F 9.4 °F 12.0 °F 88% 30.45 in 10.0 mi SSE 3.5 mph - N/A   Clear
3:53 AM 15.1 °F - 10.0 °F 80% 30.45 in 10.0 mi Calm Calm - N/A   Clear
4:53 AM 14.0 °F 3.9 °F 10.0 °F 84% 30.45 in 10.0 mi South 6.9 mph - N/A   Overcast
5:53 AM 12.0 °F 5.9 °F 9.0 °F 88% 30.45 in 10.0 mi South 3.5 mph - N/A   Partly Cloudy
6:08 AM 12.2 °F - 8.6 °F 85% 30.33 in 10.0 mi Calm Calm - N/A   Scattered Clouds
6:53 AM 12.9 °F - 9.0 °F 84% 30.45 in 10.0 mi Calm Calm - N/A   Clear
7:42 AM 17.6 °F 10.7 °F 15.8 °F 93% 30.34 in 10.0 mi SW 4.6 mph - N/A   Scattered Clouds
7:53 AM 19.4 °F 11.5 °F 15.8 °F 86% 30.35 in 10.0 mi SW 5.8 mph - N/A   Mostly Cloudy
8:11 AM 19.4 °F 11.5 °F 17.6 °F 93% 30.35 in 10.0 mi SW 5.8 mph - N/A   Overcast
8:53 AM 23.0 °F 17.0 °F 19.9 °F 88% 30.45 in 10.0 mi SSW 4.6 mph - N/A   Mostly Cloudy
9:10 AM 24.8 °F 19.1 °F 21.2 °F 86% 30.34 in 10.0 mi SW 4.6 mph - N/A   Mostly Cloudy
9:53 AM 27.0 °F 21.6 °F 21.0 °F 78% 30.44 in 10.0 mi SSW 4.6 mph - N/A   Mostly Cloudy
10:02 AM 28.4 °F 22.2 °F 21.2 °F 74% 30.33 in 10.0 mi South 5.8 mph - N/A   Mostly Cloudy
10:45 AM 28.4 °F 24.6 °F 21.2 °F 74% 30.32 in 10.0 mi SW 3.5 mph - N/A   Scattered Clouds
10:53 AM 30.0 °F 24.1 °F 21.0 °F 69% 30.43 in 10.0 mi WSW 5.8 mph - N/A   Mostly Cloudy
11:53 AM 32.0 °F 26.4 °F 19.9 °F 61% 30.42 in 10.0 mi West 5.8 mph - N/A   Mostly Cloudy
12:53 PM 34.0 °F 31.0 °F 18.0 °F 52% 30.41 in 10.0 mi Variable 3.5 mph - N/A   Mostly Cloudy
1:53 PM 36.0 °F 29.6 °F 19.0 °F 50% 30.40 in 10.0 mi West 8.1 mph - N/A   Overcast
2:53 PM 37.9 °F 32.1 °F 18.0 °F 45% 30.39 in 10.0 mi NW 8.1 mph - N/A   Overcast
3:53 PM 37.0 °F 33.3 °F 16.0 °F 42% 30.38 in 10.0 mi WSW 4.6 mph - N/A   Overcast
4:53 PM 39.0 °F 34.0 °F 16.0 °F 39% 30.36 in 10.0 mi West 6.9 mph - N/A   Mostly Cloudy
5:53 PM 41.0 °F 36.4 °F 14.0 °F 33% 30.36 in 10.0 mi West 6.9 mph - N/A   Partly Cloudy
6:53 PM 39.9 °F 35.8 °F 12.9 °F 33% 30.35 in 10.0 mi NW 5.8 mph - N/A   Clear
7:53 PM 37.9 °F 35.5 °F 14.0 °F 38% 30.33 in 10.0 mi SSW 3.5 mph - N/A   Clear
8:53 PM 28.0 °F 20.0 °F 19.9 °F 72% 30.35 in 10.0 mi South 8.1 mph - N/A   Clear
9:53 PM 27.0 °F 18.0 °F 21.0 °F 78% 30.34 in 10.0 mi South 9.2 mph - N/A   Clear
10:53 PM 27.0 °F 18.0 °F 19.0 °F 72% 30.32 in 10.0 mi South 9.2 mph - N/A   Clear
11:53 PM 27.0 °F - 19.0 °F 72% 30.30 in 10.0 mi Calm Calm - N/A   Clear